When you browse on this site, cookies collect data to enhance your experience and personalize the content and advertising you see.
Visit our Privacy Policy to learn more. By continuing to use the site, you agree to this use of cookies and data.
  • In Hungary
  • List of Countries
  • For 7 days
  • Water Temperature
  • Weather Map
  • News
  • Weather Widgets
  • user-avatar
    Login

    Hourly Weather Namche Bazar

    Today, 7 December, Saturday

    Time Temperature Precipitation Wind Pressure Humidity
    00:00 +3°C° 0 mm 1 mps 553 mmHg 66%
    01:00 +3°C° 0 mm 1 mps 552 mmHg 65%
    02:00 +2°C° 0 mm 2 mps 552 mmHg 64%
    03:00 +2°C° 0 mm 2 mps 552 mmHg 63%
    04:00 +2°C° 0 mm 2 mps 552 mmHg 62%
    05:00 +2°C° 0 mm 2 mps 552 mmHg 61%
    06:00 +3°C° 0 mm 1 mps 551 mmHg 60%
    07:00 +4°C° 0 mm 1 mps 553 mmHg 58%
    08:00 +6°C° 0 mm 1 mps 554 mmHg 56%
    09:00 +7°C° 0 mm 1 mps 556 mmHg 54%
    10:00 +8°C° 0 mm 1 mps 556 mmHg 54%
    11:00 +8°C° 0 mm 2 mps 556 mmHg 54%
    12:00 +9°C° 0 mm 2 mps 556 mmHg 53%
    13:00 +9°C° 0 mm 2 mps 555 mmHg 56%
    14:00 +9°C° 0 mm 2 mps 555 mmHg 59%
    15:00 +8°C° 0 mm 2 mps 554 mmHg 62%
    16:00 +8°C° 0 mm 1 mps 553 mmHg 68%
    17:00 +6°C° 0 mm 1 mps 552 mmHg 74%
    18:00 +3°C° 0 mm 0 mps 551 mmHg 80%
    19:00 +3°C° 0 mm 0 mps 552 mmHg 78%
    20:00 +3°C° 0 mm 1 mps 552 mmHg 76%
    21:00 +3°C° 0 mm 1 mps 552 mmHg 74%
    22:00 +3°C° 0 mm 1 mps 552 mmHg 72%
    23:00 +3°C° 0 mm 1 mps 552 mmHg 71%

    Tomorrow, 8 December, Sunday

    Time Temperature Precipitation Wind Pressure Humidity
    00:00 +3°C° 0 mm 1 mps 551 mmHg 69%
    01:00 +2°C° 0 mm 1 mps 551 mmHg 68%
    02:00 +2°C° 0 mm 1 mps 551 mmHg 67%
    03:00 +1°C° 0 mm 2 mps 551 mmHg 67%
    04:00 +2°C° 0 mm 1 mps 551 mmHg 67%
    05:00 +2°C° 0 mm 1 mps 551 mmHg 67%
    06:00 +2°C° 0 mm 1 mps 551 mmHg 67%
    07:00 +3°C° 0 mm 1 mps 552 mmHg 63%
    08:00 +5°C° 0 mm 1 mps 554 mmHg 60%
    09:00 +7°C° 0 mm 1 mps 555 mmHg 56%
    10:00 +8°C° 0 mm 1 mps 555 mmHg 57%
    11:00 +8°C° 0 mm 2 mps 555 mmHg 57%
    12:00 +9°C° 0 mm 3 mps 555 mmHg 57%
    13:00 +8°C° 0 mm 2 mps 555 mmHg 61%
    14:00 +8°C° 0 mm 2 mps 554 mmHg 65%
    15:00 +7°C° 0 mm 2 mps 553 mmHg 68%
    16:00 +7°C° 0 mm 1 mps 552 mmHg 73%
    17:00 +6°C° 0 mm 1 mps 552 mmHg 77%
    18:00 +3°C° 0 mm 0 mps 551 mmHg 82%
    19:00 +4°C° 0 mm 1 mps 551 mmHg 80%
    20:00 +3°C° 0 mm 1 mps 551 mmHg 79%
    21:00 +3°C° 0 mm 1 mps 552 mmHg 78%
    22:00 +3°C° 0 mm 1 mps 551 mmHg 78%
    23:00 +2°C° 0 mm 1 mps 551 mmHg 78%

    Day after tomorrow, 9 December, Monday

    Time Temperature Precipitation Wind Pressure Humidity
    00:00 +2°C° 0 mm 1 mps 551 mmHg 78%
    01:00 +2°C° 0 mm 1 mps 550 mmHg 77%
    02:00 +2°C° 0 mm 1 mps 550 mmHg 76%
    03:00 +2°C° 0 mm 1 mps 550 mmHg 75%
    04:00 +1°C° 0 mm 1 mps 550 mmHg 74%
    05:00 +1°C° 0 mm 1 mps 550 mmHg 73%
    06:00 +1°C° 0 mm 1 mps 550 mmHg 72%
    07:00 +3°C° 0 mm 1 mps 551 mmHg 68%
    08:00 +5°C° 0 mm 1 mps 553 mmHg 64%
    09:00 +7°C° 0 mm 1 mps 554 mmHg 61%
    10:00 +7°C° 0 mm 1 mps 554 mmHg 61%
    11:00 +7°C° 0 mm 2 mps 554 mmHg 62%
    12:00 +8°C° 0 mm 3 mps 554 mmHg 62%
    13:00 +7°C° 0 mm 2 mps 553 mmHg 66%
    14:00 +7°C° 0 mm 2 mps 552 mmHg 70%
    15:00 +6°C° 0 mm 2 mps 551 mmHg 74%
    16:00 +6°C° 0 mm 1 mps 551 mmHg 78%
    17:00 +5°C° 0 mm 1 mps 550 mmHg 81%
    18:00 +3°C° 0 mm 0 mps 550 mmHg 85%
    19:00 +2°C° 0 mm 0 mps 550 mmHg 84%
    20:00 +3°C° 0 mm 1 mps 550 mmHg 84%
    21:00 +3°C° 0 mm 1 mps 550 mmHg 84%
    22:00 +2°C° 0 mm 1 mps 550 mmHg 82%
    23:00 +2°C° 0 mm 1 mps 549 mmHg 81%

    10 December, Tuesday

    Time Temperature Precipitation Wind Pressure Humidity
    00:00 +2°C° 0 mm 1 mps 549 mmHg 80%
    01:00 +2°C° 0 mm 1 mps 549 mmHg 78%
    02:00 +1°C° 0 mm 1 mps 548 mmHg 77%
    03:00 +1°C° 0 mm 1 mps 548 mmHg 75%
    04:00 +1°C° 0 mm 1 mps 548 mmHg 75%
    05:00 +1°C° 0 mm 1 mps 548 mmHg 75%
    06:00 +1°C° 0 mm 1 mps 548 mmHg 74%
    07:00 +3°C° 0 mm 1 mps 549 mmHg 71%
    08:00 +4°C° 0 mm 1 mps 550 mmHg 67%
    09:00 +6°C° 0 mm 1 mps 552 mmHg 64%
    10:00 +6°C° 0 mm 1 mps 552 mmHg 65%
    11:00 +6°C° 0 mm 2 mps 552 mmHg 66%
    12:00 +6°C° 0 mm 2 mps 551 mmHg 68%
    13:00 +6°C° 0 mm 2 mps 551 mmHg 71%
    14:00 +6°C° 0 mm 2 mps 550 mmHg 73%
    15:00 +5°C° 0 mm 2 mps 549 mmHg 76%
    16:00 +5°C° 0 mm 1 mps 549 mmHg 80%
    17:00 +5°C° 0 mm 1 mps 548 mmHg 83%
    18:00 +3°C° 0 mm 0 mps 548 mmHg 86%
    19:00 +2°C° 0 mm 0 mps 548 mmHg 86%
    20:00 +2°C° 0 mm 0 mps 548 mmHg 87%
    21:00 +1°C° 0 mm 0 mps 548 mmHg 87%
    22:00 +1°C° 0 mm 0 mps 548 mmHg 85%
    23:00 +1°C° 0 mm 0 mps 548 mmHg 83%

    11 December, Wednesday

    Time Temperature Precipitation Wind Pressure Humidity
    00:00 +1°C° 0 mm 0 mps 548 mmHg 81%
    01:00 +1°C° 0 mm 0 mps 547 mmHg 80%
    02:00 0°C° 0 mm 0 mps 547 mmHg 79%
    03:00 0°C° 0 mm 0 mps 547 mmHg 78%
    04:00 +1°C° 0 mm 1 mps 547 mmHg 78%
    05:00 +1°C° 0 mm 1 mps 547 mmHg 78%
    06:00 0°C° 0 mm 1 mps 547 mmHg 78%
    07:00 +2°C° 0 mm 1 mps 548 mmHg 74%
    08:00 +4°C° 0 mm 1 mps 549 mmHg 70%
    09:00 +5°C° 0 mm 1 mps 551 mmHg 66%
    10:00 +5°C° 0 mm 2 mps 551 mmHg 66%
    11:00 +6°C° 0 mm 2 mps 551 mmHg 65%
    12:00 +6°C° 0 mm 2 mps 551 mmHg 65%
    13:00 +6°C° 0 mm 2 mps 550 mmHg 68%
    14:00 +5°C° 0 mm 2 mps 550 mmHg 70%
    15:00 +5°C° 0 mm 2 mps 549 mmHg 73%
    16:00 +5°C° 0 mm 1 mps 549 mmHg 77%
    17:00 +4°C° 0 mm 1 mps 548 mmHg 81%
    18:00 +2°C° 0 mm 0 mps 548 mmHg 85%
    19:00 +2°C° 0 mm 0 mps 548 mmHg 84%
    20:00 +1°C° 0 mm 0 mps 548 mmHg 82%
    21:00 +1°C° 0 mm 0 mps 548 mmHg 81%
    22:00 +2°C° 0 mm 1 mps 548 mmHg 80%
    23:00 +1°C° 0 mm 1 mps 548 mmHg 79%

    12 December, Thursday

    Time Temperature Precipitation Wind Pressure Humidity
    00:00 +1°C° 0 mm 1 mps 548 mmHg 77%
    01:00 +1°C° 0 mm 1 mps 548 mmHg 77%
    02:00 +1°C° 0 mm 1 mps 548 mmHg 77%
    03:00 +1°C° 0 mm 1 mps 548 mmHg 76%
    04:00 +1°C° 0 mm 1 mps 548 mmHg 77%
    05:00 +1°C° 0 mm 1 mps 548 mmHg 77%
    06:00 +1°C° 0 mm 1 mps 548 mmHg 77%
    07:00 +2°C° 0 mm 1 mps 549 mmHg 74%
    08:00 +4°C° 0 mm 1 mps 551 mmHg 71%
    09:00 +5°C° 0 mm 1 mps 552 mmHg 68%
    10:00 +6°C° 0 mm 1 mps 552 mmHg 68%
    11:00 +5°C° 0 mm 2 mps 552 mmHg 67%
    12:00 +6°C° 0 mm 2 mps 552 mmHg 67%
    13:00 +5°C° 0 mm 2 mps 551 mmHg 68%
    14:00 +5°C° 0 mm 2 mps 551 mmHg 70%
    15:00 +5°C° 0 mm 2 mps 550 mmHg 72%
    16:00 +5°C° 0 mm 1 mps 550 mmHg 76%
    17:00 +4°C° 0 mm 1 mps 550 mmHg 80%
    18:00 +2°C° 0 mm 0 mps 549 mmHg 84%
    19:00 +2°C° 0 mm 0 mps 550 mmHg 84%
    20:00 +1°C° 0 mm 0 mps 550 mmHg 83%
    21:00 +2°C° 0 mm 1 mps 550 mmHg 83%
    22:00 +1°C° 0 mm 1 mps 550 mmHg 82%
    23:00 +1°C° 0 mm 1 mps 549 mmHg 80%
    Show more